SL-14 R/B, 15100

Orbit data source: Space-Track

SL-14 R/B, 15100 is space debris in LEO originally from a launch on Thu, 05 Jul 1984 UTC launched from the Plesetsk Missile And Space Complex (PKMTR). Debris objects in space refer to the collection of defunct objects orbiting the Earth. Examples of debris include non-operational satellites, rocket bodies, and fragments generated from explosions, collisions, or faulty payload assembly.

Loading next visibility...
Identifier
15100, 1984-072B
Orbit
LEO
Country
Flag of CISCIS
Related business
Manufacturer
Yuzhnoe
Mission
Spacecraft
Bus & Motor
S5M, Unknown motor
Mass
1,600 kg wet, 1,600 kg dry
Launch date (UTC)
1984-07-05 (41 years ago)
Launch vehicle
Unknown
Launch site
Plesetsk Missile And Space Complex (PKMTR)
Object type
Payload
Rocket body
Debris
Shape & HBR
Unknown
Radar Cross Section
Large (>1 m²)

Expand to show TLE details & history
Last TLE update: 13 hours ago

TLE from 13 hours ago
0 SL-14 R/B
1 15100U 84072B   25311.25321455  .00000055  00000-0  36228-4 0  9992
2 15100  82.5321 221.7930 0012567  28.1579 332.0259 13.84545730 88760
Epoch: 2025-11-07T06:04Z
TLE epoch observation values (Epoch: 2025-11-07T06:04:37.737Z)
Latitude
0.00006°
Longitude
83.93594°
Altitude
942.58 km
Speed
7.385 km/s
True Right ascension
14h 47m 10s
True Declination
0° 00' 00"
Sunlit
Object was in daylight at epoch
Visualization orbit readout
Latitude
Unknown
Longitude
Unknown
Altitude
Unknown
Speed
Unknown
Apparent Right ascension
Unknown
Apparent Declination
Unknown
Sunlit
N/A
Visualization observer readout
Local Sidereal Time
15:39:05
Azimuth
Unknown
Elevation
Unknown
Doppler factor
Unknown
Orbital elements
Apogee altitude
954.162 km
Perigee altitude
935.757 km
Semi-major axis
7,323.097 km
Eccentricity
0.00126
Inclination
82.5321°
RAAN
221.793°
Arg. of periapsis
28.1579°
True anomaly
331.95826°
Mean anomaly
332.0259°
Eccentric anomaly
331.99209°
Mean motion
3.46339 °/min
Orbital period
103.94 mins
BSTAR
0.000036228
Loading maneuver chart data...
Computing Atmospheric mass density...
Loading historical data...
Loading historical data...
Loading historical data...
Loading historical data...
Loading historical data...
Loading historical data...
Loading historical data...

Documentation

Showing up to 5 results
|